KLM195 ELLX-EKCH

Flight info

Callsign KLM195
Flight time 1h 10m
Altitude 39000
Route ARCKY N853 ONUNE DCT ROBEG DCT RAMAR DCT MAKEL N851 GESKA Z711 MONAK
Aircraft A319/M-SDE3FGHIRWY/LB1

Departure

Time 2026-05-05 12:41
Airport Luxembourg-Findel International Airport (ELLX)

Arrival

Time 2026-05-05 13:51
Airport Copenhagen Kastrup Airport (EKCH)
Time Latitude Longitude Altitude Speed Heading
2026-05-05 12:07 49.63154 6.21496 1239 ft 0 kts 240°
2026-05-05 12:32 49.63157 6.21503 1238 ft 4 kts 239°
2026-05-05 12:32 49.63172 6.21536 1252 ft 4 kts 223°
2026-05-05 12:33 49.63193 6.21556 1250 ft 4 kts 176°
2026-05-05 12:33 49.63204 6.21553 1245 ft 0 kts 150°
2026-05-05 12:36 49.63197 6.21559 1248 ft 2 kts 150°
2026-05-05 12:37 49.63173 6.21579 1243 ft 5 kts 150°
2026-05-05 12:37 49.63131 6.21617 1246 ft 9 kts 151°
2026-05-05 12:37 49.63094 6.21697 1238 ft 11 kts 77°
2026-05-05 12:37 49.63130 6.21815 1243 ft 13 kts 64°
2026-05-05 12:38 49.63174 6.21955 1243 ft 16 kts 65°
2026-05-05 12:38 49.63226 6.22121 1249 ft 19 kts 64°
2026-05-05 12:38 49.63291 6.22330 1230 ft 25 kts 64°
2026-05-05 12:38 49.63383 6.22601 1226 ft 31 kts 60°
2026-05-05 12:39 49.63445 6.22766 1226 ft 14 kts 59°
2026-05-05 12:39 49.63495 6.22905 1226 ft 16 kts 61°
2026-05-05 12:39 49.63553 6.23060 1226 ft 18 kts 60°
2026-05-05 12:39 49.63625 6.23251 1223 ft 23 kts 59°
2026-05-05 12:40 49.63668 6.23401 1222 ft 16 kts 96°
2026-05-05 12:40 49.63607 6.23479 1222 ft 11 kts 153°
2026-05-05 12:40 49.63528 6.23509 1224 ft 12 kts 213°
2026-05-05 12:40 49.63449 6.23319 1222 ft 46 kts 240°
2026-05-05 12:41 49.63174 6.22582 1221 ft 110 kts 240°
2026-05-05 12:41 49.62701 6.21327 1249 ft 159 kts 239°
2026-05-05 12:41 49.62142 6.19893 1900 ft 153 kts 237°
2026-05-05 12:41 49.61609 6.18464 2531 ft 154 kts 238°
2026-05-05 12:42 49.61073 6.17009 3133 ft 161 kts 239°
2026-05-05 12:42 49.60483 6.15413 3433 ft 183 kts 239°
2026-05-05 12:42 49.59808 6.13590 3826 ft 208 kts 239°
2026-05-05 12:42 49.59047 6.11542 4317 ft 232 kts 238°
2026-05-05 12:43 49.58203 6.09280 4957 ft 252 kts 238°
2026-05-05 12:43 49.57317 6.06900 5921 ft 260 kts 238°
2026-05-05 12:43 49.56565 6.04330 6839 ft 271 kts 257°
2026-05-05 12:43 49.56752 6.01408 7745 ft 285 kts 291°
2026-05-05 12:44 49.57992 5.99008 8714 ft 295 kts 324°
2026-05-05 12:44 49.59923 5.97932 9742 ft 300 kts 356°
2026-05-05 12:44 49.62041 5.98071 10456 ft 316 kts
2026-05-05 12:44 49.64267 5.98670 11072 ft 332 kts 12°
2026-05-05 12:45 49.66559 5.99342 11915 ft 339 kts 12°
2026-05-05 12:45 49.68898 6.00008 12817 ft 345 kts
2026-05-05 12:45 49.71302 6.00356 13705 ft 350 kts
2026-05-05 12:45 49.73753 6.00427 14492 ft 356 kts
2026-05-05 12:46 49.76255 6.00368 15261 ft 360 kts 359°
2026-05-05 12:46 49.78776 6.00271 16107 ft 365 kts 359°
2026-05-05 12:46 49.81332 6.00195 16985 ft 370 kts 359°
2026-05-05 12:46 49.83931 6.00161 17789 ft 376 kts 359°
2026-05-05 12:47 49.86564 6.00166 18438 ft 381 kts 360°
2026-05-05 12:47 49.89228 6.00198 19038 ft 385 kts
2026-05-05 12:47 49.91917 6.00246 19652 ft 388 kts
2026-05-05 12:47 49.94632 6.00296 20271 ft 392 kts
2026-05-05 12:48 49.97373 6.00342 20904 ft 396 kts
2026-05-05 12:48 50.00144 6.00385 21604 ft 401 kts
2026-05-05 12:48 50.02954 6.00425 22284 ft 405 kts
2026-05-05 12:48 50.05785 6.00493 22933 ft 410 kts
2026-05-05 12:49 50.08615 6.01118 23513 ft 412 kts 14°
2026-05-05 12:49 50.11356 6.02468 24004 ft 415 kts 22°
2026-05-05 12:49 50.14069 6.04047 24496 ft 418 kts 22°
2026-05-05 12:49 50.16809 6.05636 24980 ft 422 kts 22°
2026-05-05 12:50 50.19574 6.07237 25458 ft 425 kts 21°
2026-05-05 12:50 50.22358 6.08846 25967 ft 429 kts 21°
2026-05-05 12:50 50.25171 6.10474 26450 ft 433 kts 21°
2026-05-05 12:50 50.28007 6.12122 26917 ft 437 kts 21°
2026-05-05 12:51 50.30931 6.13463 27363 ft 441 kts 12°
2026-05-05 12:51 50.33965 6.14255 27813 ft 444 kts
2026-05-05 12:51 50.37031 6.15012 28274 ft 448 kts
2026-05-05 12:51 50.40122 6.15781 28742 ft 451 kts
2026-05-05 12:52 50.43238 6.16563 29201 ft 455 kts
2026-05-05 12:52 50.46373 6.17357 29656 ft 458 kts
2026-05-05 12:52 50.49527 6.18157 30079 ft 461 kts
2026-05-05 12:52 50.52702 6.18962 30501 ft 463 kts
2026-05-05 12:53 50.55890 6.19776 30887 ft 466 kts
2026-05-05 12:53 50.59101 6.20594 31245 ft 469 kts
2026-05-05 12:53 50.62335 6.21419 31606 ft 472 kts
2026-05-05 12:53 50.65574 6.22249 32094 ft 472 kts
2026-05-05 12:54 50.71844 6.25301 33044 ft 474 kts 26°
2026-05-05 12:54 50.74687 6.27920 33539 ft 474 kts 35°
2026-05-05 12:54 50.77249 6.31185 34004 ft 473 kts 44°
2026-05-05 12:55 50.79662 6.34715 34439 ft 473 kts 44°
2026-05-05 12:55 50.82081 6.38247 34874 ft 472 kts 44°
2026-05-05 12:55 50.84490 6.41760 35313 ft 471 kts 44°
2026-05-05 12:55 50.86900 6.45276 35726 ft 471 kts 44°
2026-05-05 12:56 50.89303 6.48792 36150 ft 470 kts 44°
2026-05-05 12:56 50.91696 6.52302 36556 ft 469 kts 44°
2026-05-05 12:56 50.94087 6.55816 36975 ft 468 kts 44°
2026-05-05 12:56 50.96474 6.59329 37355 ft 468 kts 44°
2026-05-05 12:57 50.98856 6.62838 37710 ft 467 kts 44°
2026-05-05 12:57 51.01238 6.66360 38046 ft 468 kts 45°
2026-05-05 12:57 51.03399 6.70197 38392 ft 466 kts 54°
2026-05-05 12:57 51.05341 6.74318 38706 ft 465 kts 55°
2026-05-05 12:58 51.07281 6.78427 38852 ft 466 kts 54°
2026-05-05 12:58 51.10538 6.85294 38884 ft 469 kts 54°
2026-05-05 12:59 51.14471 6.93582 38888 ft 470 kts 54°
2026-05-05 12:59 51.18402 7.01925 38886 ft 471 kts 54°
2026-05-05 13:00 51.24295 7.14500 38885 ft 472 kts 54°
2026-05-05 13:01 51.32143 7.31336 38878 ft 473 kts 54°
2026-05-05 13:01 51.36055 7.39792 38888 ft 473 kts 54°
2026-05-05 13:02 51.40001 7.48215 38891 ft 473 kts 53°
2026-05-05 13:02 51.44046 7.56535 38902 ft 473 kts 52°
2026-05-05 13:03 51.48095 7.64856 38903 ft 473 kts 52°
2026-05-05 13:03 51.52111 7.73222 38886 ft 473 kts 53°
2026-05-05 13:04 51.56106 7.81629 38903 ft 474 kts 53°
2026-05-05 13:04 51.60100 7.90052 38895 ft 474 kts 53°
2026-05-05 13:05 51.64095 7.98492 38894 ft 474 kts 53°
2026-05-05 13:05 51.68092 8.06942 38900 ft 474 kts 53°
2026-05-05 13:06 51.72077 8.15401 38896 ft 474 kts 53°
2026-05-05 13:06 51.76055 8.23883 38902 ft 474 kts 52°
2026-05-05 13:07 51.80024 8.32374 38891 ft 474 kts 53°
2026-05-05 13:07 51.83992 8.40887 38887 ft 474 kts 53°
2026-05-05 13:08 51.87955 8.49407 38878 ft 474 kts 53°
2026-05-05 13:08 51.91911 8.57957 38888 ft 474 kts 53°
2026-05-05 13:09 51.95859 8.66524 38894 ft 475 kts 53°
2026-05-05 13:09 51.99801 8.75103 38909 ft 474 kts 53°
2026-05-05 13:10 52.03735 8.83688 38913 ft 474 kts 53°
2026-05-05 13:10 52.07663 8.92278 38906 ft 474 kts 53°
2026-05-05 13:11 52.11587 9.00906 38912 ft 474 kts 53°
2026-05-05 13:11 52.15506 9.09552 38916 ft 475 kts 53°
2026-05-05 13:12 52.19424 9.18215 38933 ft 475 kts 53°
2026-05-05 13:12 52.23582 9.26526 38933 ft 473 kts 41°
2026-05-05 13:13 52.28798 9.32843 38927 ft 469 kts 31°
2026-05-05 13:13 52.34237 9.38746 38929 ft 470 kts 32°
2026-05-05 13:14 52.39669 9.44686 38944 ft 469 kts 32°
2026-05-05 13:14 52.45132 9.50676 38942 ft 469 kts 32°
2026-05-05 13:15 52.50515 9.56583 38938 ft 469 kts 32°
2026-05-05 13:15 52.55957 9.62584 38936 ft 468 kts 32°
2026-05-05 13:16 52.61336 9.68536 38947 ft 468 kts 32°
2026-05-05 13:16 52.66769 9.74565 38945 ft 467 kts 32°
2026-05-05 13:17 52.72116 9.80511 38940 ft 467 kts 32°
2026-05-05 13:17 52.77539 9.86545 38939 ft 466 kts 32°
2026-05-05 13:18 52.82872 9.92509 38941 ft 466 kts 32°
2026-05-05 13:18 52.88275 9.98588 38945 ft 467 kts 32°
2026-05-05 13:19 52.93642 10.04642 38941 ft 467 kts 32°
2026-05-05 13:19 52.98977 10.10656 38935 ft 467 kts 32°
2026-05-05 13:20 53.04357 10.16730 38931 ft 467 kts 32°
2026-05-05 13:20 53.09724 10.22820 38927 ft 467 kts 32°
2026-05-05 13:21 53.15089 10.28944 38938 ft 467 kts 32°
2026-05-05 13:21 53.20443 10.35062 38943 ft 467 kts 32°
2026-05-05 13:22 53.25796 10.41201 38939 ft 467 kts 32°
2026-05-05 13:22 53.31147 10.47348 38948 ft 467 kts 32°
2026-05-05 13:23 53.36507 10.53533 38928 ft 469 kts 32°
2026-05-05 13:23 53.41876 10.59747 38925 ft 469 kts 32°
2026-05-05 13:24 53.47248 10.65982 38932 ft 470 kts 33°
2026-05-05 13:24 53.52626 10.72234 38946 ft 470 kts 32°
2026-05-05 13:25 53.58008 10.78500 38944 ft 471 kts 32°
2026-05-05 13:25 53.63397 10.84815 38944 ft 472 kts 33°
2026-05-05 13:26 53.68783 10.91153 38947 ft 472 kts 33°
2026-05-05 13:26 53.74209 10.97521 37764 ft 486 kts 32°
2026-05-05 13:27 53.77006 11.00728 37245 ft 485 kts 31°
2026-05-05 13:27 53.79810 11.03916 36585 ft 486 kts 30°
2026-05-05 13:27 53.82615 11.07098 36119 ft 483 kts 30°
2026-05-05 13:27 53.85386 11.10260 35685 ft 479 kts 30°
2026-05-05 13:28 53.88139 11.13419 35220 ft 477 kts 30°
2026-05-05 13:28 53.90882 11.16584 34755 ft 475 kts 30°
2026-05-05 13:28 53.93570 11.19694 34279 ft 473 kts 30°
2026-05-05 13:28 53.96315 11.22878 33755 ft 471 kts 30°
2026-05-05 13:29 53.98975 11.25970 33274 ft 468 kts 30°
2026-05-05 13:29 54.01684 11.29119 32795 ft 464 kts 30°
2026-05-05 13:29 54.04304 11.32167 32304 ft 460 kts 30°
2026-05-05 13:29 54.06933 11.35231 31838 ft 456 kts 30°
2026-05-05 13:30 54.09541 11.38270 31372 ft 452 kts 30°
2026-05-05 13:30 54.12128 11.41287 30912 ft 449 kts 30°
2026-05-05 13:30 54.14693 11.44282 30471 ft 445 kts 30°
2026-05-05 13:30 54.17236 11.47257 30031 ft 442 kts 30°
2026-05-05 13:31 54.19763 11.50222 29559 ft 438 kts 30°
2026-05-05 13:31 54.22252 11.53146 29150 ft 433 kts 31°
2026-05-05 13:31 54.24719 11.56051 28736 ft 427 kts 31°
2026-05-05 13:31 54.27150 11.58920 28345 ft 423 kts 31°
2026-05-05 13:32 54.29561 11.61770 27952 ft 419 kts 31°
2026-05-05 13:32 54.31947 11.64592 27536 ft 416 kts 30°
2026-05-05 13:32 54.34315 11.67397 27138 ft 413 kts 31°
2026-05-05 13:32 54.36675 11.70195 26736 ft 411 kts 30°
2026-05-05 13:33 54.39013 11.72968 26312 ft 408 kts 30°
2026-05-05 13:33 54.41346 11.75740 25892 ft 406 kts 30°
2026-05-05 13:33 54.43664 11.78495 25477 ft 405 kts 31°
2026-05-05 13:33 54.46077 11.80912 25008 ft 399 kts 21°
2026-05-05 13:34 54.48596 11.82881 24568 ft 397 kts 20°
2026-05-05 13:34 54.51104 11.84843 24117 ft 395 kts 20°
2026-05-05 13:34 54.53602 11.86803 23660 ft 394 kts 20°
2026-05-05 13:34 54.56086 11.88763 23164 ft 392 kts 21°
2026-05-05 13:35 54.58548 11.90713 22700 ft 388 kts 20°
2026-05-05 13:35 54.60990 11.92651 22250 ft 385 kts 21°
2026-05-05 13:35 54.63296 11.95010 21787 ft 385 kts 30°
2026-05-05 13:35 54.65516 11.97577 21338 ft 382 kts 30°
2026-05-05 13:36 54.67715 12.00125 20913 ft 379 kts 30°
2026-05-05 13:36 54.69905 12.02653 20420 ft 377 kts 30°
2026-05-05 13:36 54.72082 12.05167 19973 ft 375 kts 30°
2026-05-05 13:36 54.74242 12.07664 19522 ft 372 kts 30°
2026-05-05 13:37 54.76388 12.10155 19071 ft 370 kts 31°
2026-05-05 13:37 54.78521 12.12637 18617 ft 368 kts 31°
2026-05-05 13:37 54.80640 12.15105 18169 ft 367 kts 31°
2026-05-05 13:37 54.82752 12.17560 17680 ft 364 kts 30°
2026-05-05 13:38 54.84847 12.19996 17237 ft 361 kts 30°
2026-05-05 13:38 54.86922 12.22416 16791 ft 358 kts 30°
2026-05-05 13:38 54.88977 12.24820 16356 ft 355 kts 30°
2026-05-05 13:38 54.91011 12.27204 15948 ft 352 kts 30°
2026-05-05 13:39 54.93039 12.29584 15496 ft 350 kts 30°
2026-05-05 13:39 54.95055 12.31949 15066 ft 348 kts 30°
2026-05-05 13:39 54.97056 12.34293 14647 ft 346 kts 30°
2026-05-05 13:39 54.99046 12.36625 14227 ft 344 kts 30°
2026-05-05 13:40 55.01027 12.38945 13810 ft 343 kts 30°
2026-05-05 13:40 55.03005 12.41253 13344 ft 341 kts 30°
2026-05-05 13:40 55.04961 12.43533 12933 ft 337 kts 30°
2026-05-05 13:40 55.06903 12.45797 12513 ft 334 kts 30°
2026-05-05 13:41 55.08828 12.48044 12100 ft 332 kts 30°
2026-05-05 13:41 55.10737 12.50275 11686 ft 329 kts 30°
2026-05-05 13:41 55.12632 12.52493 11275 ft 327 kts 31°
2026-05-05 13:41 55.14516 12.54704 10871 ft 325 kts 30°
2026-05-05 13:42 55.16384 12.56901 10455 ft 323 kts 31°
2026-05-05 13:42 55.17616 12.58350 10186 ft 322 kts 31°
2026-05-05 13:42 55.19464 12.60531 9812 ft 319 kts 31°
2026-05-05 13:42 55.21258 12.62659 9520 ft 305 kts 31°
2026-05-05 13:43 55.22997 12.64716 9008 ft 299 kts 30°
2026-05-05 13:43 55.24780 12.66460 8651 ft 291 kts 24°
2026-05-05 13:43 55.27323 12.67636 7884 ft 286 kts 356°
2026-05-05 13:43 55.28650 12.67315 7289 ft 286 kts 341°
2026-05-05 13:44 55.30414 12.65722 6455 ft 287 kts 322°
2026-05-05 13:44 55.31964 12.63669 6161 ft 271 kts 322°
2026-05-05 13:44 55.33454 12.61738 5716 ft 262 kts 323°
2026-05-05 13:44 55.34885 12.59904 5515 ft 246 kts 324°
2026-05-05 13:45 55.36218 12.58195 5384 ft 229 kts 324°
2026-05-05 13:45 55.37461 12.56593 5189 ft 215 kts 324°
2026-05-05 13:45 55.38659 12.55050 5102 ft 213 kts 324°
2026-05-05 13:45 55.39859 12.53504 5040 ft 214 kts 324°
2026-05-05 13:46 55.41058 12.51954 4957 ft 214 kts 324°
2026-05-05 13:46 55.42183 12.50234 4832 ft 215 kts 313°
2026-05-05 13:46 55.43181 12.48224 4296 ft 222 kts 313°
2026-05-05 13:46 55.44216 12.46137 3743 ft 228 kts 313°
2026-05-05 13:47 55.45242 12.44071 3518 ft 219 kts 314°
2026-05-05 13:47 55.46477 12.42703 3385 ft 209 kts 348°
2026-05-05 13:47 55.47889 12.43015 3049 ft 210 kts 28°
2026-05-05 13:47 55.49009 12.44650 2759 ft 208 kts 39°
2026-05-05 13:48 55.50075 12.46290 2462 ft 203 kts 39°
2026-05-05 13:48 55.51111 12.47877 2196 ft 190 kts 38°
2026-05-05 13:48 55.52061 12.49335 1942 ft 175 kts 38°
2026-05-05 13:48 55.52962 12.50719 1708 ft 163 kts 38°
2026-05-05 13:49 55.53777 12.51973 1495 ft 146 kts 38°
2026-05-05 13:49 55.54514 12.53106 1301 ft 135 kts 39°
2026-05-05 13:49 55.55202 12.54162 1117 ft 131 kts 38°
2026-05-05 13:49 55.55884 12.55213 942 ft 129 kts 39°
2026-05-05 13:50 55.56557 12.56247 753 ft 129 kts 38°
2026-05-05 13:50 55.57231 12.57287 580 ft 128 kts 39°
2026-05-05 13:50 55.57899 12.58316 406 ft 127 kts 40°
2026-05-05 13:50 55.58559 12.59341 241 ft 126 kts 40°
2026-05-05 13:51 55.59212 12.60354 94 ft 124 kts 37°
2026-05-05 13:51 55.59848 12.61307 20 ft 109 kts 41°
2026-05-05 13:51 55.60331 12.62059 17 ft 74 kts 41°
2026-05-05 13:51 55.60510 12.62295 21 ft 20 kts 20°
2026-05-05 13:52 55.60605 12.62341 25 ft 12 kts 15°
2026-05-05 13:52 55.60703 12.62371 24 ft 19 kts
2026-05-05 13:52 55.60843 12.62484 23 ft 26 kts 40°
2026-05-05 13:52 55.60999 12.62726 19 ft 33 kts 41°
2026-05-05 13:53 55.61192 12.63020 22 ft 40 kts 40°
2026-05-05 13:53 55.61421 12.63374 21 ft 47 kts 41°
2026-05-05 13:53 55.61638 12.63711 18 ft 44 kts 40°
2026-05-05 13:53 55.61804 12.63969 21 ft 26 kts 41°
2026-05-05 13:54 55.61970 12.64161 21 ft 32 kts 24°
2026-05-05 13:54 55.62138 12.64283 17 ft 24 kts 25°
2026-05-05 13:54 55.62311 12.64410 20 ft 25 kts 15°
2026-05-05 13:54 55.62442 12.64483 21 ft 21 kts 34°
2026-05-05 13:55 55.62519 12.64639 21 ft 19 kts 347°
2026-05-05 13:55 55.62626 12.64630 21 ft 8 kts 346°
2026-05-05 13:55 55.62643 12.64569 21 ft 4 kts 279°
2026-05-05 13:55 55.62647 12.64548 22 ft 0 kts 287°